Location: Abraham Lincoln Continuation High School
(33.9711°N, 117.3662°W)
Time: 14:44:33
(UTC+00:00)

CENTAUR R/B - Pass Details

Date: 21 September 2020
Orbit: 753 x 1435 km, 63.5° (Epoch: 26 October)

Event Time Altitude Azimuth Distance (km) Brightness Sun altitude
Rises 04:38:04 0° 329° (NNW) 4,265 6.6 -34.7°
Reaches altitude 10° 04:40:47 10° 329° (NNW) 3,364 5.9 -35.2°
Enters shadow 04:48:38 80° 322° (NW) 1,433 3.2 -36.6°
